Terminal Aerodrome Forecast
Issued by NWS

Home | Current Version | Previous Version | Graphics & Text | Print | Product List | Glossary On
Versions: 1 2 3 4 5 6 7 8 9 10 11 12 13 14 15 16 17 18 19 20 21 22 23 24 25 26 27 28 29 30 31
000
FTUS43 KGRB 240500
TAFCWA
TAF
KCWA 240520Z 2406/2506 VRB03KT 1/4SM FG VV002
     FM241300 19003KT 1SM BR BKN003
     FM241500 20004KT 3SM BR SCT005 BKN012
     FM241800 20005KT P6SM SCT020
     FM250300 19004KT 5SM BR BKN120
      AMD LTD TO CLD VIS AND WIND TIL 241200=

USA.gov is the U.S. government's official web portal to all federal, state and local government web resources and services.